Weather History for Wheeling, WV

Change the Weather History Date:

Monday, November 5, 2012

  Actual Average Record
Temperature  
Mean Temperature 37 °F 47 °F  
Max Temperature 39 °F 55 °F 83 °F (1948)
Min Temperature 34 °F 38 °F 20 °F (1951)
Degree Days  
Heating Degree Days 28 18  
Month to date heating degree days 131 88  
Since 1 July heating degree days 617 562  
Cooling Degree Days 0    
Month to date cooling degree days 0  
Year to date cooling degree days 996  
Moisture  
Dew Point 27 °F    
Average Humidity 71    
Maximum Humidity 82    
Minimum Humidity 59    
Precipitation  
Precipitation 0.00 in 0.12 in 3.15 in (1985)
Month to date precipitation 0.06 0.55  
Sea Level Pressure  
Sea Level Pressure 30.16 in    
Wind  
Wind Speed 4 mph (NW)    
Max Wind Speed 9 mph    
Max Gust Speed 12 mph    
Visibility 10 miles    
Events      
T = Trace of Precipitation, MM = Missing Value Source: NWS Daily Summary

Daily Weather History Graph

Daily Weather History Graph

Search for Another Location

Airport:

Trip Planner

Search our weather history database for the weather conditions in past years. The results will help you decide how hot, cold, wet, or windy it might be!

Date:

Astronomy

Nov. 05, 2012 Rise Set
Actual Time 6:57 AM EST 5:14 PM EST
Civil Twilight 6:28 AM EST 5:43 PM EST
Nautical Twilight 5:56 AM EST 6:15 PM EST
Astronomical Twilight 5:24 AM EST 6:47 PM EST
Moon 10:50 PM EST (11/5) 12:15 PM EST (11/5)
Length of Visible Light 11h 14m
Length of Day
10h 17m
Waning Gibbous, 63% of the Moon is Illuminated
Nov 5
Waning Gibbous
Nov 6
Last Quarter
Nov 13
New
Nov 20
First Quarter
Nov 28
Full

Hourly Weather History & Observations

Time (EST) Temp. Windchill Dew Point Humidity Pressure Visibility Wind Dir Wind Speed Gust Speed Precip Events Conditions
12:53 AM 36.0 °F 31.1 °F 28.9 °F 76% 30.13 in 10.0 mi NW 5.8 mph - N/A   Overcast
1:53 AM 36.0 °F 32.1 °F 28.9 °F 76% 30.12 in 10.0 mi West 4.6 mph - N/A   Overcast
2:53 AM 35.1 °F 31.0 °F 28.9 °F 78% 30.13 in 10.0 mi WNW 4.6 mph - N/A   Overcast
3:53 AM 35.1 °F 32.2 °F 28.9 °F 78% 30.13 in 10.0 mi WNW 3.5 mph - N/A   Overcast
4:53 AM 35.1 °F 30.1 °F 28.9 °F 78% 30.14 in 10.0 mi WNW 5.8 mph - N/A   Overcast
5:53 AM 35.1 °F 32.2 °F 28.9 °F 78% 30.15 in 10.0 mi WNW 3.5 mph - N/A   Overcast
7:53 AM 35.1 °F 32.2 °F 28.9 °F 78% 30.18 in 10.0 mi WNW 3.5 mph - N/A   Overcast
8:00 AM 35.6 °F - 28.4 °F 75% 30.14 in 10.0 mi Calm Calm - N/A   Overcast
8:08 AM 35.6 °F 32.8 °F 30.2 °F 81% 30.14 in 10.0 mi WNW 3.5 mph - N/A   Overcast
8:17 AM 35.6 °F 32.8 °F 28.4 °F 75% 30.14 in 10.0 mi NW 3.5 mph - N/A   Overcast
8:26 AM 35.6 °F - 28.4 °F 75% 30.14 in 10.0 mi Calm Calm - N/A   Overcast
8:53 AM 36.0 °F 32.1 °F 30.0 °F 79% 30.18 in 10.0 mi NNW 4.6 mph - N/A   Overcast
9:53 AM 37.0 °F 34.5 °F 30.0 °F 76% 30.18 in 10.0 mi NW 3.5 mph - N/A   Overcast
10:53 AM 37.9 °F 35.5 °F 28.0 °F 68% 30.18 in 10.0 mi WNW 3.5 mph - N/A   Overcast
11:12 AM 37.4 °F 32.8 °F 28.4 °F 70% 30.15 in 10.0 mi West 5.8 mph - N/A   Overcast
11:53 AM 37.9 °F 34.4 °F 27.0 °F 65% 30.18 in 10.0 mi NW 4.6 mph - N/A   Overcast
12:53 PM 39.0 °F 36.8 °F 28.0 °F 65% 30.17 in 10.0 mi NNW 3.5 mph - N/A   Overcast
1:53 PM 39.0 °F 34.8 °F 28.0 °F 65% 30.16 in 10.0 mi NNW 5.8 mph - N/A   Overcast
2:32 PM 39.2 °F 37.0 °F 28.4 °F 65% 30.11 in 10.0 mi NNW 3.5 mph - N/A   Overcast
2:53 PM 39.0 °F 35.7 °F 27.0 °F 62% 30.15 in 10.0 mi West 4.6 mph - N/A   Overcast
3:53 PM 39.0 °F 36.8 °F 26.1 °F 60% 30.15 in 10.0 mi North 3.5 mph - N/A   Overcast
4:53 PM 37.9 °F 32.1 °F 25.0 °F 60% 30.16 in 10.0 mi NNW 8.1 mph - N/A   Overcast
5:53 PM 36.0 °F 29.6 °F 24.1 °F 62% 30.17 in 10.0 mi NNE 8.1 mph - N/A   Overcast
6:53 PM 36.0 °F - 23.0 °F 59% 30.18 in 10.0 mi Calm Calm - N/A   Overcast
7:53 PM 36.0 °F - 24.1 °F 62% 30.19 in 10.0 mi Calm Calm - N/A   Overcast
8:53 PM 36.0 °F 32.1 °F 24.1 °F 62% 30.20 in 10.0 mi North 4.6 mph - N/A   Overcast
9:53 PM 36.0 °F - 25.0 °F 64% 30.20 in 10.0 mi Calm Calm - N/A   Overcast
10:53 PM 35.1 °F 31.0 °F 25.0 °F 67% 30.19 in 10.0 mi NE 4.6 mph - N/A   Overcast
11:53 PM 34.0 °F 31.0 °F 24.1 °F 67% 30.18 in 10.0 mi ENE 3.5 mph - N/A   Overcast